Weather History for Golden Triangle, MS

Change the Weather History Date:

Thursday, May 2, 2013

  Actual Average Record
Temperature  
Mean Temperature 66 °F -  
Max Temperature 73 °F 77 °F 89 °F (2002)
Min Temperature 60 °F 55 °F 44 °F (2005)
Cooling Degree Days 2    
Growing Degree Days 16 (Base 50)    
Moisture  
Dew Point 57 °F    
Average Humidity 74    
Maximum Humidity 82    
Minimum Humidity 61    
Precipitation  
Precipitation 0.01 in - - ()
Sea Level Pressure  
Sea Level Pressure 30.02 in    
Wind  
Wind Speed 11 mph (East)    
Max Wind Speed 16 mph    
Max Gust Speed 21 mph    
Visibility 10 miles    
Events      
Averages and records for this station are not official NWS values.
T = Trace of Precipitation, MM = Missing Value Source: NWS Daily Summary

Daily Weather History Graph

Daily Weather History Graph

Search for Another Location

Airport:

Trip Planner

Search our weather history database for the weather conditions in past years. The results will help you decide how hot, cold, wet, or windy it might be!

Date:

Astronomy

May. 02, 2013 Rise Set
Actual Time 6:04 AM CDT 7:38 PM CDT
Civil Twilight 5:38 AM CDT 8:04 PM CDT
Nautical Twilight 5:06 AM CDT 8:36 PM CDT
Astronomical Twilight 4:33 AM CDT 9:10 PM CDT
Moon 1:30 AM CDT (5/2) 12:48 PM CDT (5/2)
Length of Visible Light 14h 26m
Length of Day
13h 33m
Waning Gibbous, 47% of the Moon is Illuminated
May 2
Waning Gibbous
May 9
New
May 17
First Quarter
May 24
Full
May 31
Last Quarter

Hourly Weather History & Observations

Time (CDT) Temp. Dew Point Humidity Pressure Visibility Wind Dir Wind Speed Gust Speed Precip Events Conditions
12:15 AM 64.4 °F 57.2 °F 77% 30.02 in 10.0 mi East 11.5 mph - N/A   Overcast
12:35 AM 64.4 °F 57.2 °F 77% 30.03 in 10.0 mi East 12.7 mph 17.3 mph N/A   Mostly Cloudy
12:55 AM 64.4 °F 55.4 °F 73% 30.03 in 10.0 mi East 9.2 mph - N/A   Mostly Cloudy
1:15 AM 64.4 °F 55.4 °F 73% 30.02 in 10.0 mi East 9.2 mph - N/A   Scattered Clouds
1:35 AM 64.4 °F 55.4 °F 73% 30.01 in 10.0 mi East 9.2 mph - N/A   Partly Cloudy
1:55 AM 64.4 °F 55.4 °F 73% 30.00 in 10.0 mi East 10.4 mph - N/A   Mostly Cloudy
2:15 AM 64.4 °F 55.4 °F 73% 30.00 in 10.0 mi East 12.7 mph - N/A   Scattered Clouds
2:35 AM 64.4 °F 55.4 °F 73% 30.01 in 10.0 mi East 11.5 mph 17.3 mph N/A   Scattered Clouds
2:55 AM 62.6 °F 55.4 °F 77% 30.01 in 10.0 mi East 12.7 mph - N/A   Scattered Clouds
3:15 AM 62.6 °F 55.4 °F 77% 30.01 in 9.0 mi East 13.8 mph 18.4 mph 0.01 in   Mostly Cloudy
3:35 AM 62.6 °F 55.4 °F 77% 30.01 in 10.0 mi East 9.2 mph - 0.01 in   Overcast
3:55 AM 60.8 °F 55.4 °F 82% 30.01 in 5.0 mi East 9.2 mph - 0.01 in   Overcast
4:15 AM 60.8 °F 55.4 °F 82% 30.01 in 10.0 mi East 9.2 mph - N/A   Overcast
4:35 AM 60.8 °F 55.4 °F 82% 30.01 in 10.0 mi East 9.2 mph - N/A   Overcast
4:55 AM 60.8 °F 55.4 °F 82% 30.01 in 10.0 mi East 8.1 mph - N/A   Overcast
5:15 AM 60.8 °F 55.4 °F 82% 30.01 in 10.0 mi East 8.1 mph - N/A   Overcast
5:35 AM 62.6 °F 55.4 °F 77% 30.02 in 10.0 mi East 8.1 mph - N/A   Overcast
5:55 AM 62.6 °F 55.4 °F 77% 30.03 in 10.0 mi East 10.4 mph - N/A   Overcast
6:50 AM 62.6 °F 55.4 °F 77% 30.05 in 10.0 mi East 6.9 mph - N/A   Overcast
7:50 AM 64.4 °F 55.4 °F 73% 30.06 in 10.0 mi East 8.1 mph - N/A   Overcast
8:50 AM 64.4 °F 57.2 °F 77% 30.06 in 10.0 mi East 11.5 mph - N/A   Overcast
9:45 AM 66.2 °F 57.2 °F 73% 30.06 in 10.0 mi ESE 15.0 mph 18.4 mph N/A   Overcast
10:45 AM 68.0 °F 57.2 °F 68% 30.07 in 10.0 mi ESE 13.8 mph 19.6 mph N/A   Overcast
11:45 AM 69.8 °F 59.0 °F 68% 30.07 in 10.0 mi East 13.8 mph 18.4 mph N/A   Overcast
12:45 PM 73.4 °F 59.0 °F 61% 30.04 in 10.0 mi East 16.1 mph 19.6 mph N/A   Mostly Cloudy
1:50 PM 73.4 °F 59.0 °F 61% 30.03 in 10.0 mi East 13.8 mph 20.7 mph N/A   Overcast
2:50 PM 73.4 °F 59.0 °F 61% 30.02 in 10.0 mi East 16.1 mph - N/A   Mostly Cloudy
3:50 PM 73.4 °F 60.8 °F 65% 30.01 in 10.0 mi East 16.1 mph - N/A   Mostly Cloudy
4:50 PM 71.6 °F 60.8 °F 69% 30.02 in 10.0 mi East 13.8 mph - N/A   Mostly Cloudy
5:50 PM 69.8 °F 60.8 °F 73% 30.01 in 10.0 mi East 9.2 mph - N/A   Overcast
6:50 PM 69.8 °F 59.0 °F 68% 30.01 in 10.0 mi East 11.5 mph - N/A   Overcast
7:50 PM 68.0 °F 59.0 °F 73% 30.02 in 10.0 mi East 6.9 mph - N/A   Overcast
8:15 PM 68.0 °F 59.0 °F 73% 30.02 in 10.0 mi East 5.8 mph - N/A   Overcast
8:35 PM 66.2 °F 59.0 °F 78% 30.03 in 10.0 mi East 6.9 mph - N/A   Scattered Clouds
8:55 PM 66.2 °F 59.0 °F 78% 30.03 in 10.0 mi ENE 6.9 mph - N/A   Scattered Clouds
9:15 PM 66.2 °F 59.0 °F 78% 30.03 in 10.0 mi ENE 6.9 mph - N/A   Mostly Cloudy
9:35 PM 66.2 °F 59.0 °F 78% 30.03 in 10.0 mi East 6.9 mph - N/A   Mostly Cloudy
9:55 PM 66.2 °F 59.0 °F 78% 30.03 in 10.0 mi East 9.2 mph - N/A   Scattered Clouds
10:15 PM 66.2 °F 57.2 °F 73% 30.03 in 10.0 mi East 8.1 mph - N/A   Mostly Cloudy
10:35 PM 64.4 °F 57.2 °F 77% 30.02 in 10.0 mi East 8.1 mph - N/A   Mostly Cloudy
10:55 PM 64.4 °F 57.2 °F 77% 30.02 in 10.0 mi East 8.1 mph - N/A   Clear
11:15 PM 64.4 °F 57.2 °F 77% 30.01 in 10.0 mi East 9.2 mph - N/A   Clear
11:35 PM 64.4 °F 57.2 °F 77% 30.01 in 10.0 mi East 6.9 mph - N/A   Clear
11:55 PM 64.4 °F 57.2 °F 77% 30.01 in 10.0 mi East 6.9 mph - N/A   Scattered Clouds